Time,TemperatureF,DewpointF,PressureIn,WindDirection,WindDirectionDegrees,WindSpeedMPH,WindSpeedGustMPH,Humidity,HourlyPrecipIn,Conditions,Clouds,dailyrainin,SoftwareType,DateUTC
2013-03-05 00:00:00,26.4,23.3,30.00,ENE,75,5.0,7.0,88,0.00,CLR,,0.00,WeatherDisplay:10.37,2013-03-05 06:00:00,
2013-03-05 00:05:00,26.4,23.3,30.00,ENE,77,5.0,8.0,88,0.00,CLR,,0.00,WeatherDisplay:10.37,2013-03-05 06:05:00,
2013-03-05 00:09:00,26.4,23.3,30.00,ENE,75,3.0,5.0,88,0.00,CLR,,0.00,WeatherDisplay:10.37,2013-03-05 06:09:00,
2013-03-05 00:15:00,26.3,23.2,30.00,ENE,70,3.0,7.0,88,0.00,CLR,,0.00,WeatherDisplay:10.37,2013-03-05 06:15:00,
2013-03-05 00:19:00,26.3,23.2,30.00,ENE,70,5.0,8.0,88,0.00,CLR,,0.00,WeatherDisplay:10.37,2013-03-05 06:19:00,
2013-03-05 00:25:00,26.3,23.2,30.00,ENE,72,3.0,9.0,88,0.00,CLR,,0.00,WeatherDisplay:10.37,2013-03-05 06:25:00,
2013-03-05 00:29:00,26.3,23.2,29.99,ENE,71,2.0,4.0,88,0.00,CLR,,0.00,WeatherDisplay:10.37,2013-03-05 06:29:00,
2013-03-05 00:34:00,26.3,23.5,29.99,ENE,64,5.0,8.0,89,0.00,CLR,,0.00,WeatherDisplay:10.37,2013-03-05 06:34:00,
2013-03-05 00:39:00,26.3,23.5,29.99,ENE,58,2.0,7.0,89,0.00,CLR,,0.00,WeatherDisplay:10.37,2013-03-05 06:39:00,
2013-03-05 00:44:00,26.3,23.5,29.99,ENE,59,2.0,4.0,89,0.00,CLR,,0.00,WeatherDisplay:10.37,2013-03-05 06:44:00,
2013-03-05 00:50:00,26.3,23.5,29.99,ENE,61,3.0,7.0,89,0.00,CLR,,0.00,WeatherDisplay:10.37,2013-03-05 06:50:00,
2013-03-05 00:55:00,26.3,23.5,29.99,ENE,64,3.0,5.0,89,0.00,CLR,,0.00,WeatherDisplay:10.37,2013-03-05 06:55:00,
2013-03-05 00:59:00,26.3,23.5,29.98,ENE,67,3.0,7.0,89,0.00,CLR,,0.00,WeatherDisplay:10.37,2013-03-05 06:59:00,
2013-03-05 01:04:00,26.4,23.6,29.98,ENE,69,3.0,7.0,89,0.00,CLR,,0.00,WeatherDisplay:10.37,2013-03-05 07:04:00,
2013-03-05 01:10:00,26.4,23.6,29.98,ENE,71,3.0,7.0,89,0.00,CLR,,0.00,WeatherDisplay:10.37,2013-03-05 07:10:00,
2013-03-05 01:14:00,26.4,23.6,29.98,ENE,72,3.0,5.0,89,0.00,CLR,,0.00,WeatherDisplay:10.37,2013-03-05 07:14:00,
2013-03-05 01:19:00,26.4,23.6,29.98,ENE,65,3.0,9.0,89,0.00,CLR,,0.00,WeatherDisplay:10.37,2013-03-05 07:19:00,
2013-03-05 01:24:00,26.4,23.6,29.98,ENE,60,2.0,7.0,89,0.00,CLR,,0.00,WeatherDisplay:10.37,2013-03-05 07:24:00,
2013-03-05 01:30:00,26.6,23.8,29.98,ENE,61,3.0,8.0,89,0.00,CLR,,0.00,WeatherDisplay:10.37,2013-03-05 07:30:00,
2013-03-05 01:34:00,26.6,23.8,29.98,ENE,64,3.0,7.0,89,0.00,CLR,,0.00,WeatherDisplay:10.37,2013-03-05 07:34:00,
2013-03-05 01:39:00,26.6,23.8,29.98,ENE,63,3.0,10.0,89,0.00,CLR,,0.00,WeatherDisplay:10.37,2013-03-05 07:39:00,
2013-03-05 01:44:00,26.7,23.9,29.97,ENE,63,3.0,7.0,89,0.00,CLR,,0.00,WeatherDisplay:10.37,2013-03-05 07:44:00,
2013-03-05 01:49:00,26.7,23.9,29.97,ENE,64,3.0,8.0,89,0.00,CLR,,0.00,WeatherDisplay:10.37,2013-03-05 07:49:00,
2013-03-05 01:54:00,26.9,24.1,29.97,ENE,58,3.0,7.0,89,0.00,CLR,,0.00,WeatherDisplay:10.37,2013-03-05 07:54:00,
2013-03-05 01:59:00,26.9,24.1,29.96,NE,55,2.0,6.0,89,0.00,CLR,,0.00,WeatherDisplay:10.37,2013-03-05 07:59:00,
2013-03-05 02:04:00,26.9,24.1,29.96,NE,55,2.0,5.0,89,0.00,CLR,,0.00,WeatherDisplay:10.37,2013-03-05 08:04:00,
2013-03-05 02:09:00,26.9,24.1,29.96,ENE,68,3.0,7.0,89,0.00,CLR,,0.00,WeatherDisplay:10.37,2013-03-05 08:09:00,
2013-03-05 02:14:00,27.0,24.2,29.95,ENE,66,2.0,6.0,89,0.00,CLR,,0.00,WeatherDisplay:10.37,2013-03-05 08:14:00,
2013-03-05 02:19:00,27.0,24.2,29.95,ENE,60,3.0,7.0,89,0.00,CLR,,0.00,WeatherDisplay:10.37,2013-03-05 08:19:00,
2013-03-05 02:24:00,26.9,24.1,29.95,ENE,58,3.0,7.0,89,0.00,CLR,,0.00,WeatherDisplay:10.37,2013-03-05 08:24:00,
2013-03-05 02:30:00,26.9,24.1,29.94,ENE,61,3.0,7.0,89,0.00,CLR,,0.00,WeatherDisplay:10.37,2013-03-05 08:30:00,
2013-03-05 02:34:00,26.9,24.1,29.94,ENE,63,2.0,5.0,89,0.00,CLR,,0.00,WeatherDisplay:10.37,2013-03-05 08:34:00,
2013-03-05 02:39:00,26.9,24.1,29.94,ENE,62,3.0,5.0,89,0.00,CLR,,0.00,WeatherDisplay:10.37,2013-03-05 08:39:00,
2013-03-05 02:45:00,26.9,23.8,29.93,ENE,64,5.0,7.0,88,0.00,CLR,,0.00,WeatherDisplay:10.37,2013-03-05 08:45:00,
2013-03-05 02:50:00,27.0,23.9,29.93,ENE,69,3.0,7.0,88,0.00,CLR,,0.00,WeatherDisplay:10.37,2013-03-05 08:50:00,
2013-03-05 02:55:00,27.0,23.9,29.93,ENE,71,5.0,7.0,88,0.00,CLR,,0.00,WeatherDisplay:10.37,2013-03-05 08:55:00,
2013-03-05 02:59:00,27.0,23.9,29.93,ENE,69,2.0,9.0,88,0.00,CLR,,0.00,WeatherDisplay:10.37,2013-03-05 08:59:00,
2013-03-05 03:05:00,27.0,23.9,29.93,ENE,67,5.0,7.0,88,0.00,CLR,,0.00,WeatherDisplay:10.37,2013-03-05 09:05:00,
2013-03-05 03:10:00,27.0,23.9,29.93,ENE,63,3.0,8.0,88,0.00,CLR,,0.00,WeatherDisplay:10.37,2013-03-05 09:10:00,
2013-03-05 03:15:00,27.2,24.1,29.92,ENE,63,2.0,8.0,88,0.00,CLR,,0.00,WeatherDisplay:10.37,2013-03-05 09:15:00,
2013-03-05 03:20:00,27.2,24.1,29.92,ENE,71,2.0,7.0,88,0.00,CLR,,0.00,WeatherDisplay:10.37,2013-03-05 09:20:00,
2013-03-05 03:25:00,27.2,24.1,29.92,ENE,64,2.0,7.0,88,0.00,CLR,,0.00,WeatherDisplay:10.37,2013-03-05 09:25:00,
2013-03-05 03:30:00,27.3,24.2,29.92,NE,56,3.0,5.0,88,0.00,CLR,,0.00,WeatherDisplay:10.37,2013-03-05 09:30:00,
2013-03-05 03:34:00,27.3,23.9,29.92,ENE,59,3.0,4.0,87,0.00,CLR,,0.00,WeatherDisplay:10.37,2013-03-05 09:34:00,
2013-03-05 03:40:00,27.5,24.1,29.92,ENE,68,3.0,7.0,87,0.00,CLR,,0.00,WeatherDisplay:10.37,2013-03-05 09:40:00,
2013-03-05 03:45:00,27.6,24.2,29.92,ENE,72,3.0,5.0,87,0.00,CLR,,0.00,WeatherDisplay:10.37,2013-03-05 09:45:00,
2013-03-05 03:50:00,27.6,24.2,29.92,ENE,69,3.0,8.0,87,0.00,CLR,,0.00,WeatherDisplay:10.37,2013-03-05 09:50:00,
2013-03-05 04:00:00,27.8,24.4,29.91,ENE,74,3.0,7.0,87,0.00,CLR,,0.00,WeatherDisplay:10.37,2013-03-05 10:00:00,
2013-03-05 04:05:00,27.9,24.5,29.91,ENE,74,3.0,9.0,87,0.00,CLR,,0.00,WeatherDisplay:10.37,2013-03-05 10:05:00,
2013-03-05 04:10:00,27.9,24.5,29.91,ENE,71,3.0,6.0,87,0.00,CLR,,0.00,WeatherDisplay:10.37,2013-03-05 10:10:00,
2013-03-05 04:15:00,27.9,24.5,29.90,ENE,74,3.0,6.0,87,0.00,CLR,,0.00,WeatherDisplay:10.37,2013-03-05 10:15:00,
2013-03-05 04:20:00,28.1,24.7,29.90,ENE,78,5.0,8.0,87,0.00,CLR,,0.00,WeatherDisplay:10.37,2013-03-05 10:20:00,
2013-03-05 04:25:00,28.2,24.8,29.90,ENE,76,5.0,9.0,87,0.00,CLR,,0.00,WeatherDisplay:10.37,2013-03-05 10:25:00,
2013-03-05 04:30:00,28.3,24.9,29.89,ENE,75,5.0,7.0,87,0.00,CLR,,0.00,WeatherDisplay:10.37,2013-03-05 10:30:00,
2013-03-05 04:35:00,28.5,24.8,29.89,ENE,72,6.0,8.0,86,0.00,CLR,,0.00,WeatherDisplay:10.37,2013-03-05 10:35:00,
2013-03-05 04:40:00,28.5,24.8,29.89,ENE,69,5.0,8.0,86,0.00,CLR,,0.00,WeatherDisplay:10.37,2013-03-05 10:40:00,
2013-03-05 04:45:00,28.7,24.8,29.89,ENE,63,5.0,10.0,85,0.00,CLR,,0.00,WeatherDisplay:10.37,2013-03-05 10:45:00,
2013-03-05 04:49:00,28.5,24.9,29.89,ENE,66,3.0,9.0,86,0.00,CLR,,0.00,WeatherDisplay:10.37,2013-03-05 10:49:00,
2013-03-05 04:54:00,28.5,24.8,29.89,ENE,74,3.0,9.0,86,0.00,CLR,,0.00,WeatherDisplay:10.37,2013-03-05 10:54:00,
2013-03-05 05:00:00,28.5,24.8,29.89,ENE,77,3.0,7.0,86,0.00,CLR,,0.00,WeatherDisplay:10.37,2013-03-05 11:00:00,
2013-03-05 05:05:00,28.5,24.8,29.89,ENE,78,2.0,4.0,86,0.00,CLR,,0.00,WeatherDisplay:10.37,2013-03-05 11:05:00,
2013-03-05 05:14:00,28.5,24.8,29.90,ENE,77,1.0,2.0,86,0.00,CLR,,0.00,WeatherDisplay:10.37,2013-03-05 11:14:00,
2013-03-05 05:19:00,28.4,24.7,29.90,ENE,77,1.0,3.0,86,0.00,CLR,,0.00,WeatherDisplay:10.37,2013-03-05 11:19:00,
2013-03-05 05:25:00,28.4,24.7,29.90,ENE,77,2.0,3.0,86,0.00,CLR,,0.00,WeatherDisplay:10.37,2013-03-05 11:25:00,
2013-03-05 05:30:00,28.5,24.8,29.89,ENE,77,2.0,5.0,86,0.00,CLR,,0.00,WeatherDisplay:10.37,2013-03-05 11:30:00,
2013-03-05 05:35:00,28.7,24.2,29.89,East,79,3.0,7.0,83,0.00,CLR,,0.00,WeatherDisplay:10.37,2013-03-05 11:35:00,
2013-03-05 05:40:00,29.0,23.6,29.89,East,83,6.0,9.0,80,0.00,CLR,,0.00,WeatherDisplay:10.37,2013-03-05 11:40:00,
2013-03-05 05:45:00,29.3,23.3,29.89,East,84,6.0,9.0,78,0.00,CLR,,0.00,WeatherDisplay:10.37,2013-03-05 11:45:00,
2013-03-05 05:50:00,29.4,22.8,29.89,East,84,5.0,14.0,76,0.00,CLR,,0.00,WeatherDisplay:10.37,2013-03-05 11:50:00,
2013-03-05 05:55:00,29.5,22.9,29.89,East,84,3.0,8.0,76,0.00,CLR,,0.00,WeatherDisplay:10.37,2013-03-05 11:55:00,
2013-03-05 06:00:00,29.5,22.9,29.88,East,80,6.0,10.0,76,0.00,CLR,,0.00,WeatherDisplay:10.37,2013-03-05 12:00:00,
2013-03-05 06:05:00,29.5,22.9,29.88,ENE,78,7.0,12.0,76,0.00,CLR,,0.00,WeatherDisplay:10.37,2013-03-05 12:05:00,
2013-03-05 06:10:00,29.5,22.9,29.88,East,82,7.0,13.0,76,0.00,CLR,,0.00,WeatherDisplay:10.37,2013-03-05 12:10:00,
2013-03-05 06:15:00,29.5,22.6,29.87,East,83,6.0,13.0,75,0.00,CLR,,0.00,WeatherDisplay:10.37,2013-03-05 12:15:00,
2013-03-05 06:20:00,29.5,22.6,29.87,East,85,6.0,14.0,75,0.00,CLR,,0.00,WeatherDisplay:10.37,2013-03-05 12:20:00,
2013-03-05 06:25:00,29.5,22.9,29.87,East,86,5.0,9.0,76,0.00,CLR,,0.00,WeatherDisplay:10.37,2013-03-05 12:25:00,
2013-03-05 06:30:00,29.5,22.6,29.87,East,81,3.0,9.0,75,0.00,CLR,,0.00,WeatherDisplay:10.37,2013-03-05 12:30:00,
2013-03-05 06:35:00,29.5,22.9,29.87,East,83,6.0,10.0,76,0.00,CLR,,0.00,WeatherDisplay:10.37,2013-03-05 12:35:00,
2013-03-05 06:40:00,29.5,22.6,29.87,East,87,6.0,10.0,75,0.00,CLR,,0.00,WeatherDisplay:10.37,2013-03-05 12:40:00,
2013-03-05 06:44:00,29.5,22.9,29.87,East,91,6.0,10.0,76,0.00,CLR,,0.00,WeatherDisplay:10.37,2013-03-05 12:44:00,
2013-03-05 06:50:00,29.5,22.9,29.87,East,88,3.0,9.0,76,0.00,CLR,,0.00,WeatherDisplay:10.37,2013-03-05 12:50:00,
2013-03-05 06:55:00,29.5,22.9,29.87,East,92,3.0,9.0,76,0.00,CLR,,0.00,WeatherDisplay:10.37,2013-03-05 12:55:00,
2013-03-05 06:59:00,29.5,22.9,29.87,East,88,2.0,8.0,76,0.00,CLR,,0.00,WeatherDisplay:10.37,2013-03-05 12:59:00,
2013-03-05 07:05:00,29.4,22.5,29.87,East,80,2.0,6.0,75,0.00,CLR,,0.00,WeatherDisplay:10.37,2013-03-05 13:05:00,
2013-03-05 07:10:00,29.5,22.8,29.87,East,88,1.0,6.0,76,0.00,CLR,,0.00,WeatherDisplay:10.37,2013-03-05 13:10:00,
2013-03-05 07:15:00,29.5,22.6,29.88,East,92,2.0,6.0,75,0.00,CLR,,0.00,WeatherDisplay:10.37,2013-03-05 13:15:00,
2013-03-05 07:19:00,29.4,22.8,29.88,East,87,2.0,7.0,76,0.00,CLR,,0.00,WeatherDisplay:10.37,2013-03-05 13:19:00,
2013-03-05 07:24:00,29.4,22.8,29.88,East,86,3.0,6.0,76,0.00,CLR,,0.00,WeatherDisplay:10.37,2013-03-05 13:24:00,
2013-03-05 07:29:00,29.4,23.1,29.89,East,87,1.0,7.0,77,0.00,CLR,,0.00,WeatherDisplay:10.37,2013-03-05 13:29:00,
2013-03-05 07:34:00,29.4,23.1,29.89,East,87,2.0,3.0,77,0.00,CLR,,0.00,WeatherDisplay:10.37,2013-03-05 13:34:00,
2013-03-05 07:40:00,29.4,22.8,29.89,East,95,2.0,6.0,76,0.00,CLR,,0.00,WeatherDisplay:10.37,2013-03-05 13:40:00,
2013-03-05 07:44:00,29.4,22.8,29.90,East,91,3.0,6.0,76,0.00,CLR,,0.00,WeatherDisplay:10.37,2013-03-05 13:44:00,
2013-03-05 07:49:00,29.4,23.1,29.90,East,84,1.0,3.0,77,0.00,CLR,,0.00,WeatherDisplay:10.37,2013-03-05 13:49:00,
2013-03-05 07:54:00,29.4,22.8,29.90,East,83,2.0,6.0,76,0.00,CLR,,0.00,WeatherDisplay:10.37,2013-03-05 13:54:00,
2013-03-05 07:59:00,29.4,22.8,29.90,East,83,2.0,6.0,76,0.00,CLR,,0.00,WeatherDisplay:10.37,2013-03-05 13:59:00,
2013-03-05 08:04:00,29.5,22.9,29.90,East,83,2.0,6.0,76,0.00,CLR,,0.00,WeatherDisplay:10.37,2013-03-05 14:04:00,
2013-03-05 08:09:00,29.7,23.7,29.90,East,87,2.0,5.0,78,0.00,CLR,,0.00,WeatherDisplay:10.37,2013-03-05 14:09:00,
2013-03-05 08:14:00,29.7,23.7,29.90,East,89,2.0,6.0,78,0.00,CLR,,0.00,WeatherDisplay:10.37,2013-03-05 14:14:00,
2013-03-05 08:19:00,29.5,23.8,29.90,East,88,3.0,6.0,79,0.00,CLR,,0.00,WeatherDisplay:10.37,2013-03-05 14:19:00,
2013-03-05 08:25:00,29.1,24.3,29.90,East,85,2.0,6.0,82,0.00,CLR,,0.00,WeatherDisplay:10.37,2013-03-05 14:25:00,
2013-03-05 08:30:00,28.6,24.1,29.90,ENE,78,3.0,5.0,83,0.00,CLR,,0.00,WeatherDisplay:10.37,2013-03-05 14:30:00,
2013-03-05 08:35:00,28.4,24.2,29.90,ENE,73,3.0,5.0,84,0.00,CLR,,0.00,WeatherDisplay:10.37,2013-03-05 14:35:00,
2013-03-05 08:40:00,28.2,24.3,29.90,ENE,77,3.0,6.0,85,0.00,CLR,,0.00,WeatherDisplay:10.37,2013-03-05 14:40:00,
2013-03-05 08:45:00,28.1,24.2,29.90,East,82,5.0,7.0,85,0.00,CLR,,0.00,WeatherDisplay:10.37,2013-03-05 14:45:00,
2013-03-05 08:50:00,27.9,24.5,29.90,East,82,3.0,8.0,87,0.00,CLR,,0.00,WeatherDisplay:10.37,2013-03-05 14:50:00,
2013-03-05 08:55:00,27.8,24.7,29.90,East,81,3.0,6.0,88,0.00,CLR,,0.00,WeatherDisplay:10.37,2013-03-05 14:55:00,
2013-03-05 09:00:00,27.5,24.7,29.90,East,81,6.0,7.0,89,0.00,CLR,,0.00,WeatherDisplay:10.37,2013-03-05 15:00:00,
2013-03-05 09:10:00,27.2,25.5,29.90,East,81,5.0,8.0,93,0.00,CLR,,0.00,WeatherDisplay:10.37,2013-03-05 15:10:00,
2013-03-05 09:20:00,27.2,26.0,29.90,East,85,2.0,7.0,95,0.00,CLR,,0.00,WeatherDisplay:10.37,2013-03-05 15:20:00,
2013-03-05 09:24:00,27.2,26.0,29.90,East,84,6.0,9.0,95,0.00,CLR,,0.00,WeatherDisplay:10.37,2013-03-05 15:24:00,
2013-03-05 09:30:00,27.2,26.2,29.89,East,83,6.0,8.0,96,0.00,CLR,,0.00,WeatherDisplay:10.37,2013-03-05 15:30:00,
2013-03-05 09:34:00,27.2,26.2,29.89,East,80,5.0,9.0,96,0.00,CLR,,0.00,WeatherDisplay:10.37,2013-03-05 15:34:00,
2013-03-05 09:39:00,27.2,26.2,29.89,ENE,78,6.0,9.0,96,0.00,CLR,,0.00,WeatherDisplay:10.37,2013-03-05 15:39:00,
2013-03-05 09:44:00,27.2,26.2,29.89,East,79,6.0,12.0,96,0.00,CLR,,0.00,WeatherDisplay:10.37,2013-03-05 15:44:00,
2013-03-05 09:49:00,27.2,26.5,29.89,ENE,70,6.0,10.0,97,0.00,CLR,,0.00,WeatherDisplay:10.37,2013-03-05 15:49:00,
2013-03-05 09:55:00,27.2,26.5,29.89,NE,56,5.0,8.0,97,0.00,CLR,,0.00,WeatherDisplay:10.37,2013-03-05 15:55:00,
2013-03-05 09:59:00,27.3,26.6,29.88,NE,56,6.0,12.0,97,0.00,CLR,,0.00,WeatherDisplay:10.37,2013-03-05 15:59:00,
2013-03-05 10:04:00,27.3,26.6,29.88,ENE,60,5.0,7.0,97,0.00,CLR,,0.00,WeatherDisplay:10.37,2013-03-05 16:04:00,
2013-03-05 10:09:00,27.3,26.6,29.88,ENE,64,5.0,5.0,97,0.00,CLR,,0.00,WeatherDisplay:10.37,2013-03-05 16:09:00,
2013-03-05 10:14:00,27.5,26.8,29.88,ENE,63,5.0,7.0,97,0.00,CLR,,0.00,WeatherDisplay:10.37,2013-03-05 16:14:00,
2013-03-05 10:19:00,27.5,26.8,29.88,ENE,63,5.0,8.0,97,0.00,CLR,,0.00,WeatherDisplay:10.37,2013-03-05 16:19:00,
2013-03-05 10:24:00,27.5,26.8,29.88,ENE,62,3.0,8.0,97,0.00,CLR,,0.00,WeatherDisplay:10.37,2013-03-05 16:24:00,
2013-03-05 10:29:00,27.5,26.8,29.88,ENE,61,5.0,10.0,97,0.00,CLR,,0.00,WeatherDisplay:10.37,2013-03-05 16:29:00,
2013-03-05 10:34:00,27.3,26.6,29.88,ENE,62,6.0,12.0,97,0.00,CLR,,0.00,WeatherDisplay:10.37,2013-03-05 16:34:00,
2013-03-05 10:39:00,27.3,26.6,29.88,ENE,61,5.0,12.0,97,0.00,CLR,,0.00,WeatherDisplay:10.37,2013-03-05 16:39:00,
2013-03-05 10:44:00,27.2,26.5,29.87,ENE,65,7.0,10.0,97,0.00,CLR,,0.00,WeatherDisplay:10.37,2013-03-05 16:44:00,
2013-03-05 10:49:00,27.2,26.5,29.87,ENE,66,6.0,9.0,97,0.00,CLR,,0.00,WeatherDisplay:10.37,2013-03-05 16:49:00,
2013-03-05 10:54:00,27.2,26.7,29.87,ENE,68,6.0,9.0,98,0.00,CLR,,0.00,WeatherDisplay:10.37,2013-03-05 16:54:00,
2013-03-05 10:59:00,27.2,26.7,29.87,ENE,67,6.0,10.0,98,0.00,CLR,,0.00,WeatherDisplay:10.37,2013-03-05 16:59:00,
2013-03-05 11:04:00,27.2,26.7,29.87,ENE,62,5.0,9.0,98,0.00,CLR,,0.00,WeatherDisplay:10.37,2013-03-05 17:04:00,
2013-03-05 11:09:00,27.3,26.8,29.87,ENE,65,5.0,9.0,98,0.00,CLR,,0.00,WeatherDisplay:10.37,2013-03-05 17:09:00,
2013-03-05 11:15:00,27.5,27.0,29.87,ENE,59,5.0,7.0,98,0.00,CLR,,0.00,WeatherDisplay:10.37,2013-03-05 17:15:00,
2013-03-05 11:25:00,27.5,26.8,29.87,NE,56,5.0,12.0,97,0.00,CLR,,0.00,WeatherDisplay:10.37,2013-03-05 17:25:00,
2013-03-05 11:30:00,27.5,26.8,29.87,ENE,57,6.0,10.0,97,0.00,CLR,,0.00,WeatherDisplay:10.37,2013-03-05 17:30:00,
2013-03-05 11:35:00,27.6,26.9,29.87,ENE,59,6.0,12.0,97,0.00,CLR,,0.00,WeatherDisplay:10.37,2013-03-05 17:35:00,
2013-03-05 11:40:00,27.7,27.0,29.87,ENE,60,3.0,9.0,97,0.00,CLR,,0.00,WeatherDisplay:10.37,2013-03-05 17:40:00,
2013-03-05 11:45:00,27.8,27.1,29.86,ENE,61,7.0,10.0,97,0.00,CLR,,0.00,WeatherDisplay:10.37,2013-03-05 17:45:00,
2013-03-05 11:50:00,27.9,27.2,29.86,ENE,60,6.0,12.0,97,0.00,CLR,,0.00,WeatherDisplay:10.37,2013-03-05 17:50:00,
2013-03-05 11:55:00,27.9,27.2,29.86,ENE,60,7.0,12.0,97,0.00,CLR,,0.00,WeatherDisplay:10.37,2013-03-05 17:55:00,
2013-03-05 12:00:00,27.8,27.1,29.85,ENE,61,5.0,12.0,97,0.00,CLR,,0.00,WeatherDisplay:10.37,2013-03-05 18:00:00,
2013-03-05 12:05:00,27.8,27.1,29.85,ENE,66,5.0,9.0,97,0.00,CLR,,0.00,WeatherDisplay:10.37,2013-03-05 18:05:00,
2013-03-05 12:10:00,27.6,26.9,29.85,ENE,63,8.0,13.0,97,0.00,CLR,,0.00,WeatherDisplay:10.37,2013-03-05 18:10:00,
2013-03-05 12:15:00,27.5,26.5,29.85,ENE,66,8.0,13.0,96,0.00,CLR,,0.00,WeatherDisplay:10.37,2013-03-05 18:15:00,
2013-03-05 12:20:00,27.2,26.2,29.85,ENE,66,8.0,13.0,96,0.00,CLR,,0.00,WeatherDisplay:10.37,2013-03-05 18:20:00,
2013-03-05 12:25:00,27.2,26.2,29.85,ENE,70,8.0,10.0,96,0.00,CLR,,0.00,WeatherDisplay:10.37,2013-03-05 18:25:00,
2013-03-05 12:30:00,27.3,26.3,29.84,ENE,69,7.0,13.0,96,0.00,CLR,,0.00,WeatherDisplay:10.37,2013-03-05 18:30:00,
2013-03-05 12:40:00,27.5,26.5,29.84,ENE,64,5.0,10.0,96,0.00,CLR,,0.00,WeatherDisplay:10.37,2013-03-05 18:40:00,
2013-03-05 12:45:00,27.8,26.3,29.84,ENE,59,6.0,12.0,94,0.00,CLR,,0.00,WeatherDisplay:10.37,2013-03-05 18:45:00,
2013-03-05 12:50:00,27.8,26.8,29.84,ENE,67,6.0,12.0,96,0.00,CLR,,0.00,WeatherDisplay:10.37,2013-03-05 18:50:00,
2013-03-05 12:55:00,27.7,26.4,29.84,ENE,64,9.0,13.0,95,0.00,CLR,,0.00,WeatherDisplay:10.37,2013-03-05 18:55:00,
2013-03-05 13:00:00,27.6,26.1,29.83,ENE,67,9.0,12.0,94,0.00,CLR,,0.00,WeatherDisplay:10.37,2013-03-05 19:00:00,
2013-03-05 13:05:00,27.8,26.0,29.83,ENE,63,8.0,14.0,93,0.00,CLR,,0.00,WeatherDisplay:10.37,2013-03-05 19:05:00,
2013-03-05 13:10:00,27.9,25.9,29.83,ENE,69,9.0,12.0,92,0.00,CLR,,0.00,WeatherDisplay:10.37,2013-03-05 19:10:00,
2013-03-05 13:15:00,27.9,25.3,29.83,ENE,76,9.0,14.0,90,0.01,RA,,0.01,WeatherDisplay:10.37,2013-03-05 19:15:00,
2013-03-05 13:20:00,28.1,25.0,29.83,ENE,71,12.0,16.0,88,0.00,RA,,0.01,WeatherDisplay:10.37,2013-03-05 19:20:00,
2013-03-05 13:25:00,28.1,25.0,29.83,ENE,65,9.0,14.0,88,0.00,CLR,,0.01,WeatherDisplay:10.37,2013-03-05 19:25:00,
2013-03-05 13:30:00,28.2,25.1,29.83,ENE,62,6.0,12.0,88,0.00,CLR,,0.01,WeatherDisplay:10.37,2013-03-05 19:30:00,
2013-03-05 13:35:00,28.4,24.7,29.83,ENE,58,8.0,16.0,86,0.00,CLR,,0.01,WeatherDisplay:10.37,2013-03-05 19:35:00,
2013-03-05 13:40:00,28.2,24.0,29.83,ENE,66,10.0,18.0,84,0.00,CLR,,0.01,WeatherDisplay:10.37,2013-03-05 19:40:00,
2013-03-05 13:45:00,28.1,23.9,29.83,ENE,73,8.0,13.0,84,0.00,CLR,,0.01,WeatherDisplay:10.37,2013-03-05 19:45:00,
2013-03-05 13:50:00,28.1,24.2,29.83,ENE,66,7.0,16.0,85,0.00,CLR,,0.01,WeatherDisplay:10.37,2013-03-05 19:50:00,
2013-03-05 13:55:00,28.2,24.8,29.83,ENE,59,7.0,14.0,87,0.00,CLR,,0.01,WeatherDisplay:10.37,2013-03-05 19:55:00,
2013-03-05 14:00:00,28.2,24.8,29.83,NE,52,8.0,15.0,87,0.00,CLR,,0.01,WeatherDisplay:10.37,2013-03-05 20:00:00,
2013-03-05 14:05:00,28.2,24.6,29.83,NE,47,8.0,17.0,86,0.00,CLR,,0.01,WeatherDisplay:10.37,2013-03-05 20:05:00,
2013-03-05 14:10:00,28.3,24.7,29.83,NE,53,7.0,12.0,86,0.00,CLR,,0.01,WeatherDisplay:10.37,2013-03-05 20:10:00,
2013-03-05 14:15:00,28.2,24.3,29.83,ENE,60,7.0,15.0,85,0.00,CLR,,0.01,WeatherDisplay:10.37,2013-03-05 20:15:00,
2013-03-05 14:20:00,28.4,24.7,29.83,NE,49,8.0,15.0,86,0.00,CLR,,0.01,WeatherDisplay:10.37,2013-03-05 20:20:00,
2013-03-05 14:25:00,28.4,23.9,29.83,NE,52,8.0,16.0,83,0.00,CLR,,0.01,WeatherDisplay:10.37,2013-03-05 20:25:00,
2013-03-05 14:30:00,28.4,24.5,29.83,NE,48,7.0,12.0,85,0.00,CLR,,0.01,WeatherDisplay:10.37,2013-03-05 20:30:00,
2013-03-05 14:35:00,28.4,24.5,29.83,NE,46,8.0,12.0,85,0.00,CLR,,0.01,WeatherDisplay:10.37,2013-03-05 20:35:00,
2013-03-05 14:40:00,28.4,24.5,29.83,NE,46,7.0,12.0,85,0.00,CLR,,0.01,WeatherDisplay:10.37,2013-03-05 20:40:00,
2013-03-05 14:45:00,28.4,24.5,29.84,NE,44,7.0,12.0,85,0.00,CLR,,0.01,WeatherDisplay:10.37,2013-03-05 20:45:00,
2013-03-05 14:50:00,28.5,24.0,29.84,NE,43,7.0,16.0,83,0.00,CLR,,0.01,WeatherDisplay:10.37,2013-03-05 20:50:00,
2013-03-05 14:55:00,28.4,23.6,29.84,NE,48,9.0,22.0,82,0.00,CLR,,0.01,WeatherDisplay:10.37,2013-03-05 20:55:00,
2013-03-05 15:00:00,28.3,22.7,29.84,NE,54,8.0,15.0,79,0.00,CLR,,0.01,WeatherDisplay:10.37,2013-03-05 21:00:00,
2013-03-05 15:05:00,28.3,23.2,29.84,NE,56,6.0,13.0,81,0.00,CLR,,0.01,WeatherDisplay:10.37,2013-03-05 21:05:00,
2013-03-05 15:10:00,28.2,23.7,29.84,NE,50,7.0,13.0,83,0.00,CLR,,0.01,WeatherDisplay:10.37,2013-03-05 21:10:00,
2013-03-05 15:15:00,28.2,24.0,29.85,NE,43,6.0,12.0,84,0.00,CLR,,0.01,WeatherDisplay:10.37,2013-03-05 21:15:00,
2013-03-05 15:20:00,28.2,24.0,29.85,NE,46,5.0,12.0,84,0.00,CLR,,0.01,WeatherDisplay:10.37,2013-03-05 21:20:00,
2013-03-05 15:25:00,28.2,24.3,29.85,NE,49,6.0,12.0,85,0.00,CLR,,0.01,WeatherDisplay:10.37,2013-03-05 21:25:00,
2013-03-05 15:30:00,27.9,24.5,29.86,NE,52,7.0,14.0,87,0.00,CLR,,0.01,WeatherDisplay:10.37,2013-03-05 21:30:00,
2013-03-05 15:35:00,27.5,24.7,29.86,NE,51,7.0,12.0,89,0.00,CLR,,0.01,WeatherDisplay:10.37,2013-03-05 21:35:00,
2013-03-05 15:40:00,27.2,24.9,29.86,NE,49,7.0,14.0,91,0.00,CLR,,0.01,WeatherDisplay:10.37,2013-03-05 21:40:00,
2013-03-05 15:45:00,27.0,25.0,29.86,NE,52,5.0,12.0,92,0.00,CLR,,0.01,WeatherDisplay:10.37,2013-03-05 21:45:00,
2013-03-05 15:50:00,27.0,25.0,29.86,NE,42,7.0,13.0,92,0.00,CLR,,0.01,WeatherDisplay:10.37,2013-03-05 21:50:00,
2013-03-05 16:00:00,26.7,24.9,29.87,NE,51,9.0,15.0,93,0.00,CLR,,0.01,WeatherDisplay:10.37,2013-03-05 22:00:00,
2013-03-05 16:05:00,26.4,24.7,29.87,NE,41,6.0,14.0,93,0.00,CLR,,0.01,WeatherDisplay:10.37,2013-03-05 22:05:00,
2013-03-05 16:10:00,26.3,24.6,29.87,NE,42,9.0,14.0,93,0.00,CLR,,0.01,WeatherDisplay:10.37,2013-03-05 22:10:00,
2013-03-05 16:15:00,26.1,24.6,29.88,NE,39,9.0,14.0,94,0.00,CLR,,0.01,WeatherDisplay:10.37,2013-03-05 22:15:00,
2013-03-05 16:20:00,26.1,24.6,29.88,NE,36,6.0,12.0,94,0.00,CLR,,0.01,WeatherDisplay:10.37,2013-03-05 22:20:00,
2013-03-05 16:25:00,26.1,24.6,29.88,NNE,32,8.0,13.0,94,0.00,CLR,,0.01,WeatherDisplay:10.37,2013-03-05 22:25:00,
2013-03-05 16:30:00,26.1,24.9,29.88,NNE,30,10.0,14.0,95,0.00,CLR,,0.01,WeatherDisplay:10.37,2013-03-05 22:30:00,
2013-03-05 16:35:00,26.1,24.9,29.88,NNE,30,7.0,13.0,95,0.00,CLR,,0.01,WeatherDisplay:10.37,2013-03-05 22:35:00,
2013-03-05 16:40:00,26.1,24.9,29.88,NNE,28,9.0,15.0,95,0.00,CLR,,0.01,WeatherDisplay:10.37,2013-03-05 22:40:00,
2013-03-05 16:45:00,26.1,24.9,29.90,NNE,29,7.0,13.0,95,0.00,CLR,,0.01,WeatherDisplay:10.37,2013-03-05 22:45:00,
2013-03-05 16:50:00,26.1,24.9,29.90,NNE,26,8.0,14.0,95,0.00,CLR,,0.01,WeatherDisplay:10.37,2013-03-05 22:50:00,
2013-03-05 16:55:00,26.0,24.8,29.90,NNE,25,9.0,16.0,95,0.00,CLR,,0.01,WeatherDisplay:10.37,2013-03-05 22:55:00,
2013-03-05 17:05:00,25.8,24.8,29.90,NNE,28,7.0,12.0,96,0.00,CLR,,0.01,WeatherDisplay:10.37,2013-03-05 23:05:00,
2013-03-05 17:10:00,25.8,24.8,29.90,NNE,30,10.0,15.0,96,0.00,CLR,,0.01,WeatherDisplay:10.37,2013-03-05 23:10:00,
2013-03-05 17:15:00,25.7,24.7,29.91,NNE,30,8.0,16.0,96,0.00,CLR,,0.01,WeatherDisplay:10.37,2013-03-05 23:15:00,
2013-03-05 17:20:00,25.6,24.6,29.91,NNE,32,8.0,15.0,96,0.00,CLR,,0.01,WeatherDisplay:10.37,2013-03-05 23:20:00,
2013-03-05 17:25:00,25.6,24.6,29.91,NNE,33,9.0,16.0,96,0.00,CLR,,0.01,WeatherDisplay:10.37,2013-03-05 23:25:00,
2013-03-05 17:30:00,25.4,24.4,29.92,NNE,30,14.0,17.0,96,0.00,CLR,,0.01,WeatherDisplay:10.37,2013-03-05 23:30:00,
2013-03-05 17:35:00,25.3,24.3,29.92,NNE,32,14.0,20.0,96,0.00,CLR,,0.01,WeatherDisplay:10.37,2013-03-05 23:35:00,
2013-03-05 17:40:00,25.1,24.1,29.92,NE,37,12.0,20.0,96,0.00,CLR,,0.01,WeatherDisplay:10.37,2013-03-05 23:40:00,
2013-03-05 17:45:00,25.0,24.0,29.93,NE,37,14.0,21.0,96,0.00,CLR,,0.01,WeatherDisplay:10.37,2013-03-05 23:45:00,
2013-03-05 17:50:00,24.7,23.8,29.93,NE,34,16.0,24.0,96,0.00,CLR,,0.01,WeatherDisplay:10.37,2013-03-05 23:50:00,
2013-03-05 17:55:00,24.4,23.4,29.93,NNE,32,15.0,22.0,96,0.00,CLR,,0.01,WeatherDisplay:10.37,2013-03-05 23:55:00,
2013-03-05 18:00:00,24.1,23.1,29.93,NNE,31,14.0,20.0,96,0.00,CLR,,0.01,WeatherDisplay:10.37,2013-03-06 00:00:00,
2013-03-05 18:05:00,23.9,22.9,29.93,NE,34,14.0,20.0,96,0.00,CLR,,0.01,WeatherDisplay:10.37,2013-03-06 00:05:00,
2013-03-05 18:10:00,23.9,22.9,29.93,NNE,33,12.0,20.0,96,0.00,CLR,,0.01,WeatherDisplay:10.37,2013-03-06 00:10:00,
2013-03-05 18:14:00,23.8,22.8,29.94,NE,34,14.0,21.0,96,0.00,CLR,,0.01,WeatherDisplay:10.37,2013-03-06 00:14:00,
2013-03-05 18:20:00,23.8,22.8,29.94,NE,34,13.0,22.0,96,0.00,CLR,,0.01,WeatherDisplay:10.37,2013-03-06 00:20:00,
2013-03-05 18:25:00,23.8,22.8,29.94,NNE,31,14.0,20.0,96,0.00,CLR,,0.01,WeatherDisplay:10.37,2013-03-06 00:25:00,
2013-03-05 18:29:00,23.8,22.8,29.95,NNE,31,12.0,20.0,96,0.00,CLR,,0.01,WeatherDisplay:10.37,2013-03-06 00:29:00,
2013-03-05 18:35:00,23.8,22.8,29.95,NNE,30,10.0,16.0,96,0.00,CLR,,0.01,WeatherDisplay:10.37,2013-03-06 00:35:00,
2013-03-05 18:45:00,23.9,22.9,29.95,NNE,28,13.0,16.0,96,0.00,CLR,,0.01,WeatherDisplay:10.37,2013-03-06 00:45:00,
2013-03-05 18:49:00,23.9,22.9,29.95,NNE,29,10.0,22.0,96,0.00,CLR,,0.01,WeatherDisplay:10.37,2013-03-06 00:49:00,
2013-03-05 18:55:00,23.9,22.9,29.95,NNE,30,13.0,17.0,96,0.00,CLR,,0.01,WeatherDisplay:10.37,2013-03-06 00:55:00,
2013-03-05 19:04:00,23.9,22.9,29.96,NNE,27,9.0,18.0,96,0.00,CLR,,0.01,WeatherDisplay:10.37,2013-03-06 01:04:00,
2013-03-05 19:09:00,23.9,22.9,29.96,NNE,19,13.0,17.0,96,0.00,CLR,,0.01,WeatherDisplay:10.37,2013-03-06 01:09:00,
2013-03-05 19:15:00,23.9,22.9,29.96,NNE,19,14.0,20.0,96,0.00,CLR,,0.01,WeatherDisplay:10.37,2013-03-06 01:15:00,
2013-03-05 19:19:00,24.1,22.6,29.96,NNE,21,13.0,21.0,94,0.00,CLR,,0.01,WeatherDisplay:10.37,2013-03-06 01:19:00,
2013-03-05 19:25:00,24.1,23.1,29.96,NNE,18,12.0,24.0,96,0.00,CLR,,0.01,WeatherDisplay:10.37,2013-03-06 01:25:00,
2013-03-05 19:29:00,24.1,23.1,29.96,NNE,22,13.0,20.0,96,0.00,CLR,,0.01,WeatherDisplay:10.37,2013-03-06 01:29:00,
2013-03-05 19:35:00,24.1,23.1,29.96,NNE,22,12.0,16.0,96,0.00,CLR,,0.01,WeatherDisplay:10.37,2013-03-06 01:35:00,
2013-03-05 19:40:00,24.2,23.2,29.96,NNE,17,13.0,20.0,96,0.00,CLR,,0.01,WeatherDisplay:10.37,2013-03-06 01:40:00,
2013-03-05 19:44:00,24.2,23.2,29.96,NNE,18,14.0,20.0,96,0.00,CLR,,0.01,WeatherDisplay:10.37,2013-03-06 01:44:00,
2013-03-05 19:50:00,24.4,23.4,29.96,NNE,18,13.0,21.0,96,0.00,CLR,,0.01,WeatherDisplay:10.37,2013-03-06 01:50:00,
2013-03-05 19:54:00,24.4,23.4,29.96,NNE,16,14.0,21.0,96,0.00,CLR,,0.01,WeatherDisplay:10.37,2013-03-06 01:54:00,
2013-03-05 20:00:00,24.4,23.4,29.96,NNE,19,14.0,20.0,96,0.00,CLR,,0.01,WeatherDisplay:10.37,2013-03-06 02:00:00,
2013-03-05 20:04:00,24.4,23.4,29.96,NNE,21,14.0,20.0,96,0.00,CLR,,0.01,WeatherDisplay:10.37,2013-03-06 02:04:00,
2013-03-05 20:09:00,24.5,23.5,29.96,NNE,18,10.0,20.0,96,0.00,CLR,,0.01,WeatherDisplay:10.37,2013-03-06 02:09:00,
2013-03-05 20:15:00,24.5,23.3,29.97,NNE,19,12.0,16.0,95,0.00,CLR,,0.01,WeatherDisplay:10.37,2013-03-06 02:15:00,
2013-03-05 20:19:00,24.5,23.3,29.97,NNE,15,12.0,18.0,95,0.00,CLR,,0.01,WeatherDisplay:10.37,2013-03-06 02:19:00,
2013-03-05 20:24:00,24.5,23.3,29.97,NNE,12,12.0,17.0,95,0.00,CLR,,0.01,WeatherDisplay:10.37,2013-03-06 02:24:00,
2013-03-05 20:30:00,24.4,23.2,29.97,North,8,10.0,17.0,95,0.00,CLR,,0.01,WeatherDisplay:10.37,2013-03-06 02:30:00,
2013-03-05 20:40:00,24.2,23.0,29.97,North,6,10.0,15.0,95,0.00,CLR,,0.01,WeatherDisplay:10.37,2013-03-06 02:40:00,
2013-03-05 20:44:00,24.1,22.6,29.97,North,7,9.0,13.0,94,0.00,CLR,,0.01,WeatherDisplay:10.37,2013-03-06 02:44:00,
2013-03-05 20:49:00,24.1,22.6,29.97,North,360,10.0,17.0,94,0.00,CLR,,0.01,WeatherDisplay:10.37,2013-03-06 02:49:00,
2013-03-05 20:54:00,24.0,22.5,29.97,North,2,12.0,15.0,94,0.00,CLR,,0.01,WeatherDisplay:10.37,2013-03-06 02:54:00,
2013-03-05 21:00:00,24.1,22.6,29.97,North,10,8.0,17.0,94,0.00,CLR,,0.01,WeatherDisplay:10.37,2013-03-06 03:00:00,
2013-03-05 21:10:00,23.9,22.4,29.97,North,4,8.0,12.0,94,0.00,CLR,,0.01,WeatherDisplay:10.37,2013-03-06 03:10:00,
2013-03-05 21:19:00,23.9,22.4,29.98,North,358,8.0,12.0,94,0.00,CLR,,0.01,WeatherDisplay:10.37,2013-03-06 03:19:00,
2013-03-05 21:24:00,23.9,22.4,29.98,North,355,8.0,12.0,94,0.00,CLR,,0.01,WeatherDisplay:10.37,2013-03-06 03:24:00,
2013-03-05 21:29:00,23.9,22.4,29.98,North,359,6.0,12.0,94,0.00,CLR,,0.01,WeatherDisplay:10.37,2013-03-06 03:29:00,
2013-03-05 21:34:00,23.9,22.4,29.98,North,360,7.0,10.0,94,0.00,CLR,,0.01,WeatherDisplay:10.37,2013-03-06 03:34:00,
2013-03-05 21:39:00,23.9,22.4,29.98,North,355,5.0,8.0,94,0.00,CLR,,0.01,WeatherDisplay:10.37,2013-03-06 03:39:00,
2013-03-05 21:44:00,23.9,22.4,29.99,North,354,5.0,9.0,94,0.00,CLR,,0.01,WeatherDisplay:10.37,2013-03-06 03:44:00,
2013-03-05 21:49:00,23.9,22.7,29.99,North,353,6.0,10.0,95,0.00,CLR,,0.01,WeatherDisplay:10.37,2013-03-06 03:49:00,
2013-03-05 21:54:00,24.1,22.9,29.99,North,350,6.0,10.0,95,0.00,CLR,,0.01,WeatherDisplay:10.37,2013-03-06 03:54:00,
2013-03-05 21:59:00,24.2,23.0,30.00,North,351,6.0,12.0,95,0.00,CLR,,0.01,WeatherDisplay:10.37,2013-03-06 03:59:00,
2013-03-05 22:04:00,24.2,23.2,30.00,NNW,348,7.0,12.0,96,0.00,CLR,,0.01,WeatherDisplay:10.37,2013-03-06 04:04:00,
2013-03-05 22:09:00,24.4,23.2,30.00,North,351,5.0,9.0,95,0.00,CLR,,0.01,WeatherDisplay:10.37,2013-03-06 04:09:00,
2013-03-05 22:14:00,24.4,23.2,30.00,NNW,348,3.0,9.0,95,0.00,CLR,,0.01,WeatherDisplay:10.37,2013-03-06 04:14:00,
2013-03-05 22:19:00,24.4,23.2,30.00,NNW,344,6.0,10.0,95,0.00,CLR,,0.01,WeatherDisplay:10.37,2013-03-06 04:19:00,
2013-03-05 22:24:00,24.4,22.9,30.00,NNW,344,5.0,8.0,94,0.00,CLR,,0.01,WeatherDisplay:10.37,2013-03-06 04:24:00,
2013-03-05 22:29:00,24.5,23.0,30.00,NNW,348,6.0,12.0,94,0.00,CLR,,0.01,WeatherDisplay:10.37,2013-03-06 04:29:00,
2013-03-05 22:34:00,24.5,23.0,30.00,North,351,6.0,10.0,94,0.00,CLR,,0.01,WeatherDisplay:10.37,2013-03-06 04:34:00,
2013-03-05 22:39:00,24.5,23.0,30.00,NNW,344,5.0,12.0,94,0.00,CLR,,0.01,WeatherDisplay:10.37,2013-03-06 04:39:00,
2013-03-05 22:44:00,24.4,22.9,30.00,NNW,347,7.0,12.0,94,0.00,CLR,,0.01,WeatherDisplay:10.37,2013-03-06 04:44:00,
2013-03-05 22:49:00,24.4,22.9,30.00,NNW,348,5.0,10.0,94,0.00,CLR,,0.01,WeatherDisplay:10.37,2013-03-06 04:49:00,
2013-03-05 22:54:00,24.4,22.9,30.00,NNW,347,6.0,8.0,94,0.00,CLR,,0.01,WeatherDisplay:10.37,2013-03-06 04:54:00,
2013-03-05 22:59:00,24.4,22.7,30.01,NNW,348,6.0,12.0,93,0.00,CLR,,0.01,WeatherDisplay:10.37,2013-03-06 04:59:00,
2013-03-05 23:04:00,24.4,22.7,30.01,North,349,7.0,12.0,93,0.00,CLR,,0.01,WeatherDisplay:10.37,2013-03-06 05:04:00,
2013-03-05 23:09:00,24.4,22.4,30.01,NNW,345,8.0,12.0,92,0.00,CLR,,0.01,WeatherDisplay:10.37,2013-03-06 05:09:00,
2013-03-05 23:14:00,24.4,22.4,30.01,NNW,341,6.0,12.0,92,0.00,CLR,,0.01,WeatherDisplay:10.37,2013-03-06 05:14:00,
2013-03-05 23:19:00,24.4,22.4,30.01,NNW,343,6.0,10.0,92,0.00,CLR,,0.01,WeatherDisplay:10.37,2013-03-06 05:19:00,
2013-03-05 23:25:00,24.4,22.4,30.01,NNW,345,7.0,13.0,92,0.00,CLR,,0.01,WeatherDisplay:10.37,2013-03-06 05:25:00,
2013-03-05 23:30:00,24.2,22.2,30.01,NNW,346,7.0,13.0,92,0.00,CLR,,0.01,WeatherDisplay:10.37,2013-03-06 05:30:00,
2013-03-05 23:35:00,24.4,22.4,30.01,NNW,348,8.0,13.0,92,0.00,CLR,,0.01,WeatherDisplay:10.37,2013-03-06 05:35:00,
2013-03-05 23:40:00,24.5,22.2,30.01,NNW,345,7.0,12.0,91,0.00,CLR,,0.01,WeatherDisplay:10.37,2013-03-06 05:40:00,
2013-03-05 23:45:00,24.5,22.2,30.02,NNW,345,8.0,14.0,91,0.00,CLR,,0.01,WeatherDisplay:10.37,2013-03-06 05:45:00,
2013-03-05 23:50:00,24.7,22.4,30.02,North,350,9.0,14.0,91,0.00,CLR,,0.01,WeatherDisplay:10.37,2013-03-06 05:50:00,
2013-03-05 23:55:00,24.7,22.4,30.02,North,351,9.0,14.0,91,0.00,CLR,,0.01,WeatherDisplay:10.37,2013-03-06 05:55:00,
2013-03-05 23:59:00,24.8,22.3,30.03,North,356,9.0,16.0,90,0.00,RA,,0.00,WeatherDisplay:10.37,2013-03-06 05:59:00,